Location: Recife
(8.0585°S, 34.8848°W)
Time: 21:22:46
(UTC-03:00)

Altair - Pass Details

Date: 14 April 2026
Orbit: 1501 x 1682 km, 47.2° (Epoch: 17 May)

Event Time Altitude Azimuth Distance (km) Brightness Sun altitude
Rises 10:22:57 0° 239° (WSW) 4,901 9.9 67.4°
Reaches altitude 10° 10:26:28 10° 247° (WSW) 3,926 9.6 67.9°
Maximum altitude 10:35:18 35° 308° (NW) 2,480 9.2 69.2°
Drops below altitude 10° 10:44:10 10° 10° (N) 3,920 10.1 70.3°
Sets 10:47:43 0° 19° (NNE) 4,892 10.4 70.7°
